Time,TemperatureF,DewpointF,PressureIn,WindDirection,WindDirectionDegrees,WindSpeedMPH,WindSpeedGustMPH,Humidity,HourlyPrecipIn,Conditions,Clouds,dailyrainin,SoftwareType,DateUTC
2013-05-13 00:03:00,56.8,55.4,30.12,WNW,292,0.0,-999.0,95,-99.99,,,0.00,Acu-Link.com,2013-05-13 05:03:00,
2013-05-13 00:18:00,55.9,55.4,30.12,NNE,22,2.7,-999.0,98,-99.99,,,0.00,Acu-Link.com,2013-05-13 05:18:00,
2013-05-13 00:34:00,55.6,55.0,30.12,West,270,0.0,-999.0,98,-99.99,,,0.00,Acu-Link.com,2013-05-13 05:34:00,
2013-05-13 00:49:00,54.7,54.4,30.12,South,180,2.2,-999.0,99,-99.99,,,0.00,Acu-Link.com,2013-05-13 05:49:00,
2013-05-13 01:04:00,54.0,53.7,30.12,South,180,0.0,-999.0,99,-99.99,,,0.00,Acu-Link.com,2013-05-13 06:04:00,
2013-05-13 01:20:00,53.4,53.1,30.12,North,0,1.1,-999.0,99,-99.99,,,0.00,Acu-Link.com,2013-05-13 06:20:00,
2013-05-13 01:35:00,53.4,53.1,30.12,NNE,22,2.7,-999.0,99,-99.99,,,0.00,Acu-Link.com,2013-05-13 06:35:00,
2013-05-13 01:50:00,54.0,53.4,30.11,ENE,67,0.0,-999.0,98,-99.99,,,0.00,Acu-Link.com,2013-05-13 06:50:00,
2013-05-13 02:05:00,53.6,52.8,30.11,ESE,112,0.0,-999.0,97,-99.99,,,0.00,Acu-Link.com,2013-05-13 07:05:00,
2013-05-13 02:21:00,53.1,52.8,30.10,ESE,112,0.0,-999.0,99,-99.99,,,0.00,Acu-Link.com,2013-05-13 07:21:00,
2013-05-13 02:36:00,52.2,51.9,30.11,East,90,0.0,-999.0,99,-99.99,,,0.00,Acu-Link.com,2013-05-13 07:36:00,
2013-05-13 02:51:00,51.8,51.5,30.11,NNE,22,1.6,-999.0,99,-99.99,,,0.00,Acu-Link.com,2013-05-13 07:51:00,
2013-05-13 03:07:00,51.8,51.5,30.12,NE,45,0.0,-999.0,99,-99.99,,,0.00,Acu-Link.com,2013-05-13 08:07:00,
2013-05-13 03:22:00,51.8,51.5,30.12,NNE,22,1.1,-999.0,99,-99.99,,,0.00,Acu-Link.com,2013-05-13 08:22:00,
2013-05-13 03:37:00,51.8,51.5,30.11,SW,225,0.0,-999.0,99,-99.99,,,0.00,Acu-Link.com,2013-05-13 08:37:00,
2013-05-13 03:52:00,50.9,50.6,30.12,WNW,292,0.0,-999.0,99,-99.99,,,0.00,Acu-Link.com,2013-05-13 08:52:00,
2013-05-13 04:08:00,51.1,50.8,30.12,NE,45,0.0,-999.0,99,-99.99,,,0.00,Acu-Link.com,2013-05-13 09:08:00,
2013-05-13 04:23:00,51.1,50.8,30.12,South,180,0.0,-999.0,99,-99.99,,,0.00,Acu-Link.com,2013-05-13 09:23:00,
2013-05-13 04:38:00,50.7,50.4,30.12,NE,45,2.2,-999.0,99,-99.99,,,0.00,Acu-Link.com,2013-05-13 09:38:00,
2013-05-13 04:53:00,51.1,50.8,30.13,NE,45,1.6,-999.0,99,-99.99,,,0.00,Acu-Link.com,2013-05-13 09:53:00,
2013-05-13 05:08:00,50.9,50.6,30.12,West,270,0.0,-999.0,99,-99.99,,,0.00,Acu-Link.com,2013-05-13 10:08:00,
2013-05-13 05:24:00,50.7,50.4,30.13,NNW,337,0.0,-999.0,99,-99.99,,,0.00,Acu-Link.com,2013-05-13 10:24:00,
2013-05-13 05:39:00,50.4,50.1,30.13,WNW,292,0.0,-999.0,99,-99.99,,,0.00,Acu-Link.com,2013-05-13 10:39:00,
2013-05-13 05:54:00,50.5,50.3,30.13,NNE,22,0.0,-999.0,99,-99.99,,,0.00,Acu-Link.com,2013-05-13 10:54:00,
2013-05-13 06:10:00,50.2,49.9,30.14,NNE,22,0.0,-999.0,99,-99.99,,,0.00,Acu-Link.com,2013-05-13 11:10:00,
2013-05-13 06:25:00,50.2,49.9,30.15,NNE,22,0.0,-999.0,99,-99.99,,,0.00,Acu-Link.com,2013-05-13 11:25:00,
2013-05-13 06:40:00,50.5,50.3,30.16,ENE,67,0.0,-999.0,99,-99.99,,,0.00,Acu-Link.com,2013-05-13 11:40:00,
2013-05-13 06:55:00,51.8,51.5,30.16,NNE,22,0.0,-999.0,99,-99.99,,,0.00,Acu-Link.com,2013-05-13 11:55:00,
2013-05-13 07:11:00,52.5,52.2,30.17,ENE,67,2.2,-999.0,99,-99.99,,,0.00,Acu-Link.com,2013-05-13 12:11:00,
2013-05-13 07:26:00,53.8,53.5,30.18,NE,45,3.8,-999.0,99,-99.99,,,0.00,Acu-Link.com,2013-05-13 12:26:00,
2013-05-13 07:41:00,55.0,54.8,30.19,NE,45,2.7,-999.0,99,-99.99,,,0.00,Acu-Link.com,2013-05-13 12:41:00,
2013-05-13 07:56:00,56.3,55.7,30.19,NNE,22,1.6,-999.0,98,-99.99,,,0.00,Acu-Link.com,2013-05-13 12:56:00,
2013-05-13 08:12:00,57.6,55.8,30.20,North,0,1.6,-999.0,94,-99.99,,,0.00,Acu-Link.com,2013-05-13 13:12:00,
2013-05-13 08:27:00,62.1,56.8,30.20,SSE,157,0.0,-999.0,83,-99.99,,,0.00,Acu-Link.com,2013-05-13 13:27:00,
2013-05-13 08:42:00,66.6,56.5,30.20,North,0,1.6,-999.0,70,-99.99,,,0.00,Acu-Link.com,2013-05-13 13:42:00,
2013-05-13 08:58:00,68.7,53.3,30.21,SE,135,1.6,-999.0,58,-99.99,,,0.00,Acu-Link.com,2013-05-13 13:58:00,
2013-05-13 09:13:00,72.0,54.4,30.22,East,90,1.6,-999.0,54,-99.99,,,0.00,Acu-Link.com,2013-05-13 14:13:00,
2013-05-13 09:28:00,73.8,53.9,30.22,ESE,112,3.1,-999.0,50,-99.99,,,0.00,Acu-Link.com,2013-05-13 14:28:00,
2013-05-13 09:44:00,74.5,52.3,30.22,SW,225,4.3,-999.0,46,-99.99,,,0.00,Acu-Link.com,2013-05-13 14:44:00,
2013-05-13 09:59:00,70.7,54.7,30.22,South,180,1.6,-999.0,57,-99.99,,,0.00,Acu-Link.com,2013-05-13 14:59:00,
2013-05-13 10:14:00,71.2,51.1,30.23,ESE,112,4.7,-999.0,49,-99.99,,,0.00,Acu-Link.com,2013-05-13 15:14:00,
2013-05-13 10:29:00,72.7,50.1,30.23,ESE,112,2.2,-999.0,45,-99.99,,,0.00,Acu-Link.com,2013-05-13 15:29:00,
2013-05-13 10:45:00,72.9,49.0,30.24,SSE,157,2.2,-999.0,43,-99.99,,,0.00,Acu-Link.com,2013-05-13 15:45:00,
2013-05-13 11:00:00,73.0,46.6,30.24,NNE,22,2.7,-999.0,39,-99.99,,,0.00,Acu-Link.com,2013-05-13 16:00:00,
2013-05-13 11:15:00,74.5,49.2,30.24,ESE,112,3.1,-999.0,41,-99.99,,,0.00,Acu-Link.com,2013-05-13 16:15:00,
2013-05-13 11:31:00,74.5,47.2,30.24,ESE,112,2.2,-999.0,38,-99.99,,,0.00,Acu-Link.com,2013-05-13 16:31:00,
2013-05-13 11:46:00,75.6,50.8,30.23,ESE,112,3.1,-999.0,42,-99.99,,,0.00,Acu-Link.com,2013-05-13 16:46:00,
2013-05-13 12:01:00,76.3,50.2,30.23,SSW,202,2.7,-999.0,40,-99.99,,,0.00,Acu-Link.com,2013-05-13 17:01:00,
2013-05-13 12:17:00,75.4,53.1,30.23,West,270,3.1,-999.0,46,-99.99,,,0.00,Acu-Link.com,2013-05-13 17:17:00,
2013-05-13 12:32:00,77.0,51.5,30.23,South,180,3.1,-999.0,41,-99.99,,,0.00,Acu-Link.com,2013-05-13 17:32:00,
2013-05-13 12:47:00,77.0,50.8,30.22,SE,135,3.8,-999.0,40,-99.99,,,0.00,Acu-Link.com,2013-05-13 17:47:00,
2013-05-13 13:02:00,77.4,50.4,30.21,SSE,157,8.9,-999.0,39,-99.99,,,0.00,Acu-Link.com,2013-05-13 18:02:00,
2013-05-13 13:17:00,78.4,52.1,30.21,ENE,67,2.7,-999.0,40,-99.99,,,0.00,Acu-Link.com,2013-05-13 18:17:00,
2013-05-13 13:33:00,77.2,51.0,30.20,SSE,157,2.2,-999.0,40,-99.99,,,0.00,Acu-Link.com,2013-05-13 18:33:00,
2013-05-13 13:48:00,77.2,48.1,30.19,SE,135,4.7,-999.0,36,-99.99,,,0.00,Acu-Link.com,2013-05-13 18:48:00,
2013-05-13 14:03:00,78.6,48.7,30.19,SSE,157,2.7,-999.0,35,-99.99,,,0.00,Acu-Link.com,2013-05-13 19:03:00,
2013-05-13 14:18:00,78.6,47.1,30.19,South,180,3.8,-999.0,33,-99.99,,,0.00,Acu-Link.com,2013-05-13 19:18:00,
2013-05-13 14:34:00,78.4,44.4,30.19,South,180,4.3,-999.0,30,-99.99,,,0.00,Acu-Link.com,2013-05-13 19:34:00,
2013-05-13 14:49:00,79.0,47.4,30.18,SSE,157,5.1,-999.0,33,-99.99,,,0.00,Acu-Link.com,2013-05-13 19:49:00,
2013-05-13 15:04:00,79.2,48.4,30.18,South,180,5.1,-999.0,34,-99.99,,,0.00,Acu-Link.com,2013-05-13 20:04:00,
2013-05-13 15:20:00,79.9,50.5,30.17,ESE,112,2.7,-999.0,36,-99.99,,,0.00,Acu-Link.com,2013-05-13 20:20:00,
2013-05-13 15:35:00,79.3,49.3,30.17,SSW,202,4.7,-999.0,35,-99.99,,,0.00,Acu-Link.com,2013-05-13 20:35:00,
2013-05-13 15:50:00,79.5,49.4,30.16,South,180,2.7,-999.0,35,-99.99,,,0.00,Acu-Link.com,2013-05-13 20:50:00,
2013-05-13 16:05:00,79.7,52.5,30.16,ESE,112,2.7,-999.0,39,-99.99,,,0.00,Acu-Link.com,2013-05-13 21:05:00,
2013-05-13 16:21:00,80.6,54.0,30.16,SSE,157,4.7,-999.0,40,-99.99,,,0.00,Acu-Link.com,2013-05-13 21:21:00,
2013-05-13 16:36:00,79.5,50.2,30.15,ESE,112,0.0,-999.0,36,-99.99,,,0.00,Acu-Link.com,2013-05-13 21:36:00,
2013-05-13 16:51:00,80.1,52.1,30.14,SSW,202,5.1,-999.0,38,-99.99,,,0.00,Acu-Link.com,2013-05-13 21:51:00,
2013-05-13 17:06:00,79.7,50.4,30.14,South,180,5.1,-999.0,36,-99.99,,,0.00,Acu-Link.com,2013-05-13 22:06:00,
2013-05-13 17:22:00,81.1,50.9,30.14,SSE,157,4.3,-999.0,35,-99.99,,,0.00,Acu-Link.com,2013-05-13 22:22:00,
2013-05-13 17:37:00,84.2,49.4,30.14,SSW,202,2.2,-999.0,30,-99.99,,,0.00,Acu-Link.com,2013-05-13 22:37:00,
2013-05-13 17:52:00,85.1,47.3,30.14,WSW,247,1.6,-999.0,27,-99.99,,,0.00,Acu-Link.com,2013-05-13 22:52:00,
2013-05-13 18:08:00,88.2,47.9,30.13,West,270,4.3,-999.0,25,-99.99,,,0.00,Acu-Link.com,2013-05-13 23:08:00,
2013-05-13 18:23:00,82.9,50.0,30.13,South,180,1.6,-999.0,32,-99.99,,,0.00,Acu-Link.com,2013-05-13 23:23:00,
2013-05-13 18:38:00,88.2,51.9,30.13,West,270,2.7,-999.0,29,-99.99,,,0.00,Acu-Link.com,2013-05-13 23:38:00,
2013-05-13 18:53:00,84.6,55.4,30.14,SSW,202,2.2,-999.0,37,-99.99,,,0.00,Acu-Link.com,2013-05-13 23:53:00,
2013-05-13 19:08:00,84.4,60.1,30.14,SW,225,2.2,-999.0,44,-99.99,,,0.00,Acu-Link.com,2013-05-14 00:08:00,
2013-05-13 19:24:00,82.9,59.4,30.14,WSW,247,0.0,-999.0,45,-99.99,,,0.00,Acu-Link.com,2013-05-14 00:24:00,
2013-05-13 19:39:00,80.2,58.7,30.14,West,270,0.0,-999.0,48,-99.99,,,0.00,Acu-Link.com,2013-05-14 00:39:00,
2013-05-13 19:54:00,74.3,59.5,30.14,West,270,0.0,-999.0,60,-99.99,,,0.00,Acu-Link.com,2013-05-14 00:54:00,
2013-05-13 20:09:00,70.3,59.3,30.14,WNW,292,0.0,-999.0,68,-99.99,,,0.00,Acu-Link.com,2013-05-14 01:09:00,
2013-05-13 20:24:00,68.9,59.1,30.13,WNW,292,0.0,-999.0,71,-99.99,,,0.00,Acu-Link.com,2013-05-14 01:24:00,
2013-05-13 20:39:00,67.3,59.1,30.14,ESE,112,0.0,-999.0,75,-99.99,,,0.00,Acu-Link.com,2013-05-14 01:39:00,
2013-05-13 20:55:00,65.1,60.5,30.14,SSE,157,0.0,-999.0,85,-99.99,,,0.00,Acu-Link.com,2013-05-14 01:55:00,
2013-05-13 21:10:00,63.5,60.8,30.14,West,270,0.0,-999.0,91,-99.99,,,0.00,Acu-Link.com,2013-05-14 02:10:00,
2013-05-13 21:25:00,63.1,60.5,30.14,WNW,292,0.0,-999.0,91,-99.99,,,0.00,Acu-Link.com,2013-05-14 02:25:00,
2013-05-13 21:40:00,62.4,60.7,30.15,WSW,247,0.0,-999.0,94,-99.99,,,0.00,Acu-Link.com,2013-05-14 02:40:00,
2013-05-13 21:56:00,62.1,58.5,30.16,WSW,247,0.0,-999.0,88,-99.99,,,0.00,Acu-Link.com,2013-05-14 02:56:00,
2013-05-13 22:11:00,61.5,57.0,30.16,West,270,0.0,-999.0,85,-99.99,,,0.00,Acu-Link.com,2013-05-14 03:11:00,
2013-05-13 22:26:00,62.1,58.1,30.16,SSE,157,0.0,-999.0,87,-99.99,,,0.00,Acu-Link.com,2013-05-14 03:26:00,
2013-05-13 22:41:00,61.0,57.7,30.16,South,180,0.0,-999.0,89,-99.99,,,0.00,Acu-Link.com,2013-05-14 03:41:00,
2013-05-13 22:57:00,60.8,56.9,30.17,South,180,1.6,-999.0,87,-99.99,,,0.00,Acu-Link.com,2013-05-14 03:57:00,
2013-05-13 23:12:00,60.4,56.9,30.16,West,270,2.2,-999.0,88,-99.99,,,0.00,Acu-Link.com,2013-05-14 04:12:00,
2013-05-13 23:27:00,60.6,57.0,30.16,South,180,3.8,-999.0,88,-99.99,,,0.00,Acu-Link.com,2013-05-14 04:27:00,
2013-05-13 23:42:00,60.6,57.7,30.15,SSW,202,1.6,-999.0,90,-99.99,,,0.00,Acu-Link.com,2013-05-14 04:42:00,
2013-05-13 23:58:00,60.1,57.7,30.16,WNW,292,0.0,-999.0,92,-99.99,,,0.00,Acu-Link.com,2013-05-14 04:58:00,